DUTHSat-2

operational
NORAD ID: 64530 Int'l Des: 2025-135 Owner: DUTH Country: GR
LEOCIRCULARRETROGRADESSO

DUTHSat-2について

説明を読み込み中...

リアルタイム位置

3D地球を読み込み中...

次回通過

高度履歴

Altitude vs Time

uPlot chart will show altitude changes over time

軌道要素

1 64530U 25135C 26063.31705897 .00023804 00000-0 98117-3 0 9997
2 64530 97.4500 179.5653 0005182 186.2228 173.8945 15.24067343 38942
Epoch: Mar 4, 2026 • Age: 16 hours

現在のステータス

高度 494.3 km
速度 7.62 km/s
衛星直下点 28.90°N, 40.62°W
打ち上げ日 Jun 23, 2025
運用期間 0.6 years
タイプ other

技術仕様

分類 Payload
質量 10.00 kg
乾燥質量 10.00 kg
総質量 10.00 kg
長さ 0.30 m
直径 0.20 m
スパン 0.30 m
形状 Box
製造者 DUTH
バスタイプ Cubesat 6U
フェーズステータス In Orbit
所有者/国 DUTH/GR

大規模コンステレーション

Loading constellations...